National Weather Service Raw Text Product

Displaying AFOS PIL: RWRIA Received: 2018-06-14 11:00 UTC


441 
ASUS43 KDMX 141106
RWRIA 

WEATHER ROUNDUP FOR IOWA
NATIONAL WEATHER SERVICE DES MOINES IA
600 AM CDT THU JUN 14 2018

NOTE: "FAIR" INDICATES FEW OR NO CLOUDS BELOW 12,000 FEET WITH NO
SIGNIFICANT WEATHER AND/OR OBSTRUCTIONS TO VISIBILITY.

* - THESE STATIONS ARE NOT NWS STATIONS...THUS NOT UNDER NWS
QUALITY CONTROL.  THEY ALSO DO NOT REPORT WEATHER SUCH 
AS PRECIPITATION OR FOG.  

IAZ001>003-012>014-020>022-031>034-043>046-141200-
   NORTHWEST IOWA
  
CITY           SKY/WX    TMP DP  RH WIND       PRES   REMARKS
CARROLL *      CLOUDY    64  59  82 SE14      29.89F                  
CHEROKEE *     CLOUDY    63  61  94 E6        29.87F                  
DENISON *      CLOUDY    68  55  64 S14G21    29.86F                  
LE MARS *      CLOUDY   N/A N/A N/A E8        29.85R                  
ORANGE CITY *  CLOUDY    66  61  82 SE8       29.87R                  
SHELDON *      HVY RAIN  66  64  94 SE16G24   29.93R                  
SIOUX CITY     CLOUDY    65  57  75 S8        29.84S                  
SPENCER        TSTM      61  57  87 SE15      29.93R FOG              
STORM LAKE *   CLOUDY    63  59  88 SE17      29.90R                  
$$
 
IAZ055>058-069>071-079>083-090>094-141200-
   SOUTHWEST IOWA
  
CITY           SKY/WX    TMP DP  RH WIND       PRES   REMARKS
ATLANTIC *     CLOUDY    70  57  64 S9        29.90S                  
AUDUBON *      CLOUDY    70  57  64 S8        29.90F                  
CLARINDA *     PTCLDY    66  57  72 S6        29.92F                  
COUNCIL BLFS * CLEAR     66  63  88 SE9       29.86F                  
CRESTON *      CLOUDY    66  55  68 SE14G21   29.94F                  
HARLAN  *      CLOUDY    68  55  64 S12       29.91F                  
LAMONI         PTCLDY    67  53  61 SE10      29.95F                  
RED OAK *      PTCLDY    66  57  72 MISG      29.89F                  
SHENANDOAH *   CLEAR     68  59  73 S6        29.88F                  
$$
 
IAZ047>049-059>061-072>074-084-141200-
   CENTRAL IOWA
  
CITY           SKY/WX    TMP DP  RH WIND       PRES   REMARKS
AMES           TSTM      62  32  32 SW10      30.00R                  
ANKENY *       RAIN      61  57  88 SE15G22   30.00R                  
BOONE *        CLOUDY    61  59  94 SE22G30   29.94F FOG              
CHARITON *     CLOUDY    66  54  63 MISG      29.95F                  
DES MOINES     CLOUDY    70  53  54 E17G29    29.99R THUNDER          
GRINNELL*      HVY RAIN  61  56  84 SE18      30.03F                  
KNOXVILLE *    CLOUDY    66  52  59 NE15G26   29.99R                  
MARSHALLTOWN   CLOUDY    62  56  80 SE14      29.96F                  
NEWTON *       LGT RAIN  61  55  82 SE14G24   29.99F                  
PELLA *        CLOUDY    68  50  53 E6G32     30.04R                  
PERRY *        CLOUDY    64  60  87 E20       29.92F                  
$$
 
IAZ004>006-015-016-023>025-035-036-141200-
   NORTH CENTRAL IOWA
  
CITY           SKY/WX    TMP DP  RH WIND       PRES   REMARKS
ALGONA *       CLOUDY    64  55  72 SE12      29.95S                  
CLARION *      CLOUDY    64  54  68 SE15      29.94F                  
ESTHERVILLE    LGT RAIN  63  55  75 SE15G24   29.92F                  
FORT DODGE *   TSTM      61  57  87 SE8G18    29.93F                  
MASON CITY     CLOUDY    64  56  75 SE9       29.99R                  
FOREST CITY *  LGT RAIN  64  55  72 SE8       29.95F                  
WEBSTER CITY * HVY RAIN  61  59  94 SE28      29.89F VSB 3/4          
IOWA FALLS *   FAIR      64  56  76 SE9       29.97F                  
$$

IAZ007>011-017>019-026>030-037>042-050>054-066-141200-
   NORTHEAST IOWA
  
CITY           SKY/WX    TMP DP  RH WIND       PRES   REMARKS
CEDAR RAPIDS   FAIR      63  57  81 S3        30.03F                  
CHARLES CITY * CLOUDY    64  54  68 SE8G15    30.01R                  
CLINTON *      FAIR      61  58  90 E5        30.06S                  
DECORAH *      FAIR      61  55  82 CALM      30.02S                  
DUBUQUE        FAIR      59  52  77 CALM      30.06S                  
MONTICELLO *   FAIR      57  57 100 CALM      30.03F                  
OELWEIN *      FAIR      61  57  88 SE8       30.03S                  
WATERLOO       FAIR      63  56  78 SE7       30.01S                  
$$
 
IAZ064-065-067-068-078-141200-
   EAST CENTRAL IOWA
  
CITY           SKY/WX    TMP DP  RH WIND       PRES   REMARKS
DAVENPORT      FAIR      60  54  80 E3        30.07R                  
IOWA CITY      FAIR      65  57  75 E3        30.03F                  
MT. PLEASANT * CLOUDY    61  54  77 NE3       30.04R                  
MUSCATINE *      N/A    N/A N/A N/A MISG        N/A                   
QUAD CITIES    FAIR      61  57  87 CALM      30.04S                  
$$
 
IAZ062-063-075>077-085>089-095>099-141200-
   SOUTHEAST IOWA
  
CITY           SKY/WX    TMP DP  RH WIND       PRES   REMARKS
BURLINGTON     MOCLDY    66  53  63 SE10      30.02F                  
FAIRFIELD *    CLOUDY    64  52  63 SE8       30.02R                  
FORT MADISON * PTCLDY    66  54  63 SE5       30.03F                  
KEOKUK *       PTCLDY    63  55  77 SE8       30.02F                  
OSKALOOSA *    CLOUDY    64  54  70 SE10      30.00R                  
CENTERVILLE *    N/A     64  54  68 SE7       30.00F                  
OTTUMWA        CLOUDY    66  52  60 SE10      30.01F                  
WASHINGTON *   CLOUDY    63  59  88 SE6       30.04S                  
$$

ABBREVIATIONS USED IN REMARKS
   TC - TEMPERATURES IN CELSIUS
  WCI - WIND CHILL INDEX
   HX - HEAT INDEX
  VSB - VISIBILITY  
$$

  

033 
ASUS43 KDMX 141101
RWRIA 

WEATHER ROUNDUP FOR IOWA
NATIONAL WEATHER SERVICE DES MOINES IA
600 AM CDT THU JUN 14 2018

NOTE: "FAIR" INDICATES FEW OR NO CLOUDS BELOW 12,000 FEET WITH NO
SIGNIFICANT WEATHER AND/OR OBSTRUCTIONS TO VISIBILITY.

* - THESE STATIONS ARE NOT NWS STATIONS...THUS NOT UNDER NWS
QUALITY CONTROL.  THEY ALSO DO NOT REPORT WEATHER SUCH 
AS PRECIPITATION OR FOG.  

IAZ001>003-012>014-020>022-031>034-043>046-141200-
   NORTHWEST IOWA
  
CITY           SKY/WX    TMP DP  RH WIND       PRES   REMARKS
CARROLL *      CLOUDY    64  59  82 SE14      29.89F                  
CHEROKEE *     CLOUDY    63  61  94 E6        29.87F                  
DENISON *      CLOUDY    68  55  64 S14G21    29.86F                  
LE MARS *      CLOUDY   N/A N/A N/A E8        29.85R                  
ORANGE CITY *  CLOUDY    66  61  82 SE8       29.87R                  
SHELDON *      HVY RAIN  66  64  94 SE16G24   29.93R                  
SIOUX CITY     CLOUDY    65  57  75 S8        29.84S                  
SPENCER        TSTM      62  57  83 SE15G22   29.92S                  
STORM LAKE *   CLOUDY    63  59  88 SE17      29.90R                  
$$
 
IAZ055>058-069>071-079>083-090>094-141200-
   SOUTHWEST IOWA
  
CITY           SKY/WX    TMP DP  RH WIND       PRES   REMARKS
ATLANTIC *     CLOUDY    70  57  64 S9        29.90S                  
AUDUBON *      CLOUDY    70  57  64 S8        29.90F                  
CLARINDA *     PTCLDY    66  57  72 S6        29.92F                  
COUNCIL BLFS * CLEAR     66  63  88 SE9       29.86F                  
CRESTON *      CLOUDY    66  55  68 SE14G21   29.94F                  
HARLAN  *      CLOUDY    68  55  64 S12       29.91F                  
LAMONI         PTCLDY    67  53  61 SE10      29.95F                  
RED OAK *      PTCLDY    66  57  72 MISG      29.89F                  
SHENANDOAH *   CLEAR     68  59  73 S6        29.88F                  
$$
 
IAZ047>049-059>061-072>074-084-141200-
   CENTRAL IOWA
  
CITY           SKY/WX    TMP DP  RH WIND       PRES   REMARKS
AMES           TSTM      62  32  32 SW10      30.00R                  
ANKENY *       RAIN      61  57  88 SE15G22   30.00R                  
BOONE *        CLOUDY    61  59  94 SE22G30   29.94F FOG              
CHARITON *     CLOUDY    66  54  63 MISG      29.95F                  
DES MOINES     CLOUDY    70  53  54 E17G29    29.99R THUNDER          
GRINNELL*      HVY RAIN  61  56  84 SE18      30.03F                  
KNOXVILLE *    CLOUDY    66  52  59 NE15G26   29.99R                  
MARSHALLTOWN   CLOUDY    62  56  80 SE14      29.96F                  
NEWTON *       LGT RAIN  61  55  82 SE14G24   29.99F                  
PELLA *        CLOUDY    68  50  53 E6G32     30.04R                  
$$
 
IAZ004>006-015-016-023>025-035-036-141200-
   NORTH CENTRAL IOWA
  
CITY           SKY/WX    TMP DP  RH WIND       PRES   REMARKS
ALGONA *       CLOUDY    64  55  72 SE12      29.95S                  
CLARION *      CLOUDY    64  54  68 SE15      29.94F                  
ESTHERVILLE    LGT RAIN  63  55  75 SE15G24   29.92F                  
FORT DODGE *   TSTM      61  57  87 SE8G18    29.93F                  
MASON CITY     CLOUDY    64  56  75 SE9       29.99R                  
FOREST CITY *  LGT RAIN  64  55  72 SE8       29.95F                  
WEBSTER CITY * HVY RAIN  61  59  94 SE28      29.89F VSB 3/4          
IOWA FALLS *   FAIR      64  56  76 SE9       29.97F                  
$$

IAZ007>011-017>019-026>030-037>042-050>054-066-141200-
   NORTHEAST IOWA
  
CITY           SKY/WX    TMP DP  RH WIND       PRES   REMARKS
CEDAR RAPIDS   FAIR      63  57  81 S3        30.03F                  
CHARLES CITY * CLOUDY    64  54  68 SE8G15    30.01R                  
CLINTON *      FAIR      61  58  90 E5        30.06S                  
DECORAH *      FAIR      61  55  82 CALM      30.02S                  
DUBUQUE        FAIR      59  52  77 CALM      30.06S                  
MONTICELLO *   FAIR      57  57 100 CALM      30.03F                  
OELWEIN *      FAIR      61  57  88 SE8       30.03S                  
WATERLOO       FAIR      63  56  78 SE7       30.01S                  
$$
 
IAZ064-065-067-068-078-141200-
   EAST CENTRAL IOWA
  
CITY           SKY/WX    TMP DP  RH WIND       PRES   REMARKS
DAVENPORT      FAIR      60  54  80 E3        30.07R                  
IOWA CITY      FAIR      65  57  75 E3        30.03F                  
MUSCATINE *      N/A    N/A N/A N/A MISG        N/A                   
QUAD CITIES    FAIR      61  57  87 CALM      30.04S                  
$$
 
IAZ062-063-075>077-085>089-095>099-141200-
   SOUTHEAST IOWA
  
CITY           SKY/WX    TMP DP  RH WIND       PRES   REMARKS
BURLINGTON     MOCLDY    66  53  63 SE10      30.02F                  
FAIRFIELD *    CLOUDY    64  52  63 SE8       30.02R                  
FORT MADISON * PTCLDY    66  54  63 SE5       30.03F                  
KEOKUK *       PTCLDY    63  55  77 SE8       30.02F                  
OSKALOOSA *    CLOUDY    64  54  70 SE10      30.00R                  
CENTERVILLE *    N/A     64  54  68 SE7       30.00F                  
OTTUMWA        CLOUDY    66  52  60 SE10      30.01F                  
WASHINGTON *   CLOUDY    63  59  88 SE6       30.04S                  
$$

ABBREVIATIONS USED IN REMARKS
   TC - TEMPERATURES IN CELSIUS
  WCI - WIND CHILL INDEX
   HX - HEAT INDEX
  VSB - VISIBILITY  
$$